Year,Month,Day,Hour,Minute,Value (Times are PST for temperature in C)
2008,07,18,00,00,10.70
2008,07,18,00,01,10.70
2008,07,18,00,02,10.80
2008,07,18,00,03,10.70
2008,07,18,00,04,10.70
2008,07,18,00,05,10.70
2008,07,18,00,06,10.70
2008,07,18,00,07,10.70
2008,07,18,00,08,10.70
2008,07,18,00,09,10.70
2008,07,18,00,10,10.70
2008,07,18,00,11,10.70
2008,07,18,00,12,10.70
2008,07,18,00,13,10.70
2008,07,18,00,14,10.70
2008,07,18,00,15,10.70
2008,07,18,00,16,10.70
2008,07,18,00,17,10.70
2008,07,18,00,18,10.70
2008,07,18,00,19,10.70
2008,07,18,00,20,10.70
2008,07,18,00,21,10.70
2008,07,18,00,22,10.70
2008,07,18,00,23,10.70
2008,07,18,00,24,10.70
2008,07,18,00,25,10.70
2008,07,18,00,26,10.70
2008,07,18,00,27,10.70
2008,07,18,00,28,10.70
2008,07,18,00,29,10.70
2008,07,18,00,30,10.70
2008,07,18,00,31,10.70
2008,07,18,00,32,10.70
2008,07,18,00,33,10.70
2008,07,18,00,34,10.70
2008,07,18,00,35,10.70
2008,07,18,00,36,10.70
2008,07,18,00,37,10.70
2008,07,18,00,38,10.70
2008,07,18,00,39,10.70
2008,07,18,00,40,10.70
2008,07,18,00,41,10.60
2008,07,18,00,42,10.70
2008,07,18,00,43,10.60
2008,07,18,00,44,10.60
2008,07,18,00,45,10.60
2008,07,18,00,46,10.60
2008,07,18,00,47,10.60
2008,07,18,00,48,10.60
2008,07,18,00,49,10.60
2008,07,18,00,50,10.60
2008,07,18,00,51,10.60
2008,07,18,00,52,10.60
2008,07,18,00,53,10.60
2008,07,18,00,54,10.60
2008,07,18,00,55,10.60
2008,07,18,00,56,10.60
2008,07,18,00,57,10.60
2008,07,18,00,58,10.60
2008,07,18,00,59,10.60
2008,07,18,01,00,10.60
2008,07,18,01,01,10.60
2008,07,18,01,02,10.60
2008,07,18,01,03,10.60
2008,07,18,01,04,10.60
2008,07,18,01,05,10.60
2008,07,18,01,06,10.60
2008,07,18,01,07,10.60
2008,07,18,01,08,10.60
2008,07,18,01,09,10.60
2008,07,18,01,10,10.60
2008,07,18,01,11,10.60
2008,07,18,01,12,10.60
2008,07,18,01,13,10.60
2008,07,18,01,14,10.60
2008,07,18,01,15,10.60
2008,07,18,01,16,10.60
2008,07,18,01,17,10.60
2008,07,18,01,18,10.60
2008,07,18,01,19,10.60
2008,07,18,01,20,10.60
2008,07,18,01,21,10.60
2008,07,18,01,22,10.60
2008,07,18,01,23,10.60
2008,07,18,01,24,10.60
2008,07,18,01,25,10.50
2008,07,18,01,26,10.50
2008,07,18,01,27,10.60
2008,07,18,01,28,10.60
2008,07,18,01,29,10.50
2008,07,18,01,30,10.50
2008,07,18,01,31,10.60
2008,07,18,01,32,10.60
2008,07,18,01,33,10.60
2008,07,18,01,34,10.60
2008,07,18,01,35,10.60
2008,07,18,01,36,10.60
2008,07,18,01,37,10.60
2008,07,18,01,38,10.60
2008,07,18,01,39,10.60
2008,07,18,01,40,10.60
2008,07,18,01,41,10.50
2008,07,18,01,42,10.50
2008,07,18,01,43,10.60
2008,07,18,01,44,10.60
2008,07,18,01,45,10.60
2008,07,18,01,46,10.50
2008,07,18,01,47,10.50
2008,07,18,01,48,10.50
2008,07,18,01,49,10.50
2008,07,18,01,50,10.50
2008,07,18,01,51,10.50
2008,07,18,01,52,10.50
2008,07,18,01,53,10.50
2008,07,18,01,54,10.50
2008,07,18,01,55,10.50
2008,07,18,01,56,10.40
2008,07,18,01,57,10.40
2008,07,18,01,58,10.40
2008,07,18,01,59,10.40
2008,07,18,02,00,10.40
2008,07,18,02,01,10.40
2008,07,18,02,02,10.40
2008,07,18,02,03,10.40
2008,07,18,02,04,10.40
2008,07,18,02,05,10.40
2008,07,18,02,06,10.40
2008,07,18,02,07,10.40
2008,07,18,02,08,10.40
2008,07,18,02,09,10.40
2008,07,18,02,10,10.40
2008,07,18,02,11,10.40
2008,07,18,02,12,10.40
2008,07,18,02,13,10.40
2008,07,18,02,14,10.40
2008,07,18,02,15,10.40
2008,07,18,02,16,10.40
2008,07,18,02,17,10.40
2008,07,18,02,18,10.40
2008,07,18,02,19,10.40
2008,07,18,02,20,10.40
2008,07,18,02,21,10.30
2008,07,18,02,22,10.30
2008,07,18,02,23,10.30
2008,07,18,02,24,10.30
2008,07,18,02,25,10.30
2008,07,18,02,26,10.30
2008,07,18,02,27,10.30
2008,07,18,02,28,10.30
2008,07,18,02,29,10.30
2008,07,18,02,30,10.30
2008,07,18,02,31,10.30
2008,07,18,02,32,10.30
2008,07,18,02,33,10.30
2008,07,18,02,34,10.30
2008,07,18,02,35,10.30
2008,07,18,02,36,10.30
2008,07,18,02,37,10.30
2008,07,18,02,38,10.30
2008,07,18,02,39,10.30
2008,07,18,02,40,10.30
2008,07,18,02,41,10.30
2008,07,18,02,42,10.30
2008,07,18,02,43,10.30
2008,07,18,02,44,10.30
2008,07,18,02,45,10.30
2008,07,18,02,46,10.30
2008,07,18,02,47,10.30
2008,07,18,02,48,10.30
2008,07,18,02,49,10.30
2008,07,18,02,50,10.30
2008,07,18,02,51,10.30
2008,07,18,02,52,10.30
2008,07,18,02,53,10.30
2008,07,18,02,54,10.30
2008,07,18,02,55,10.30
2008,07,18,02,56,10.20
2008,07,18,02,57,10.20
2008,07,18,02,58,10.20
2008,07,18,02,59,10.20
2008,07,18,03,00,10.20
2008,07,18,03,01,10.20
2008,07,18,03,02,10.20
2008,07,18,03,03,10.20
2008,07,18,03,04,10.20
2008,07,18,03,05,10.20
2008,07,18,03,06,10.20
2008,07,18,03,07,10.20
2008,07,18,03,08,10.20
2008,07,18,03,09,10.20
2008,07,18,03,10,10.30
2008,07,18,03,11,10.30
2008,07,18,03,12,10.30
2008,07,18,03,13,10.30
2008,07,18,03,14,10.30
2008,07,18,03,15,10.30
2008,07,18,03,16,10.30
2008,07,18,03,17,10.30
2008,07,18,03,18,10.30
2008,07,18,03,19,10.30
2008,07,18,03,20,10.30
2008,07,18,03,21,10.30
2008,07,18,03,22,10.30
2008,07,18,03,23,10.30
2008,07,18,03,24,10.30
2008,07,18,03,25,10.30
2008,07,18,03,26,10.30
2008,07,18,03,27,10.30
2008,07,18,03,28,10.30
2008,07,18,03,29,10.20
2008,07,18,03,30,10.30
2008,07,18,03,31,10.30
2008,07,18,03,32,10.20
2008,07,18,03,33,10.20
2008,07,18,03,34,10.20
2008,07,18,03,35,10.20
2008,07,18,03,36,10.20
2008,07,18,03,37,10.20
2008,07,18,03,38,10.20
2008,07,18,03,39,10.20
2008,07,18,03,40,10.20
2008,07,18,03,41,10.20
2008,07,18,03,42,10.20
2008,07,18,03,43,10.20
2008,07,18,03,44,10.20
2008,07,18,03,45,10.20
2008,07,18,03,46,10.20
2008,07,18,03,47,10.20
2008,07,18,03,48,10.20
2008,07,18,03,49,10.20
2008,07,18,03,50,10.20
2008,07,18,03,51,10.20
2008,07,18,03,52,10.20
2008,07,18,03,53,10.20
2008,07,18,03,54,10.20
2008,07,18,03,55,10.20
2008,07,18,03,56,10.20
2008,07,18,03,57,10.20
2008,07,18,03,58,10.20
2008,07,18,03,59,10.20
2008,07,18,04,00,10.20
2008,07,18,04,01,10.20
2008,07,18,04,02,10.20
2008,07,18,04,03,10.20
2008,07,18,04,04,10.20
2008,07,18,04,05,10.10
2008,07,18,04,06,10.10
2008,07,18,04,07,10.10
2008,07,18,04,08,10.10
2008,07,18,04,09,10.10
2008,07,18,04,10,10.10
2008,07,18,04,11,10.10
2008,07,18,04,12,10.10
2008,07,18,04,13,10.10
2008,07,18,04,14,10.10
2008,07,18,04,15,10.10
2008,07,18,04,16,10.10
2008,07,18,04,17,10.10
2008,07,18,04,18,10.10
2008,07,18,04,19,10.10
2008,07,18,04,20,10.10
2008,07,18,04,21,10.10
2008,07,18,04,22,10.10
2008,07,18,04,23,10.10
2008,07,18,04,24,10.10
2008,07,18,04,25,10.10
2008,07,18,04,26,10.10
2008,07,18,04,27,10.10
2008,07,18,04,28,10.10
2008,07,18,04,29,10.10
2008,07,18,04,30,10.10
2008,07,18,04,31,10.10
2008,07,18,04,32,10.10
2008,07,18,04,33,10.10
2008,07,18,04,34,10.10
2008,07,18,04,35,10.10
2008,07,18,04,36,10.10
2008,07,18,04,37,10.10
2008,07,18,04,38,10.10
2008,07,18,04,39,10.00
2008,07,18,04,40,10.00
2008,07,18,04,41,10.00
2008,07,18,04,42,10.00
2008,07,18,04,43,10.00
2008,07,18,04,44,10.00
2008,07,18,04,45,10.00
2008,07,18,04,46,10.00
2008,07,18,04,47,10.00
2008,07,18,04,48,10.00
2008,07,18,04,49,10.00
2008,07,18,04,50,10.00
2008,07,18,04,51,10.00
2008,07,18,04,52,10.00
2008,07,18,04,53,9.90
2008,07,18,04,54,9.90
2008,07,18,04,55,9.90
2008,07,18,04,56,10.00
2008,07,18,04,57,9.90
2008,07,18,04,58,10.00
2008,07,18,04,59,9.90
2008,07,18,05,00,9.90
2008,07,18,05,01,10.00
2008,07,18,05,02,10.00
2008,07,18,05,03,10.00
2008,07,18,05,04,9.90
2008,07,18,05,05,10.00
2008,07,18,05,06,9.90
2008,07,18,05,07,10.00
2008,07,18,05,08,9.90
2008,07,18,05,09,9.90
2008,07,18,05,10,9.90
2008,07,18,05,11,9.90
2008,07,18,05,12,9.90
2008,07,18,05,13,9.90
2008,07,18,05,14,9.90
2008,07,18,05,15,9.90
2008,07,18,05,16,9.90
2008,07,18,05,17,9.90
2008,07,18,05,18,9.90
2008,07,18,05,19,9.90
2008,07,18,05,20,9.90
2008,07,18,05,21,9.90
2008,07,18,05,22,10.00
2008,07,18,05,23,10.00
2008,07,18,05,24,10.00
2008,07,18,05,25,10.00
2008,07,18,05,26,10.00
2008,07,18,05,27,10.00
2008,07,18,05,28,10.00
2008,07,18,05,29,10.00
2008,07,18,05,30,10.00
2008,07,18,05,31,10.00
2008,07,18,05,32,10.00
2008,07,18,05,33,10.00
2008,07,18,05,34,10.00
2008,07,18,05,35,10.00
2008,07,18,05,36,10.00
2008,07,18,05,37,10.00
2008,07,18,05,38,10.00
2008,07,18,05,39,10.00
2008,07,18,05,40,10.00
2008,07,18,05,41,10.00
2008,07,18,05,42,10.00
2008,07,18,05,43,10.00
2008,07,18,05,44,10.00
2008,07,18,05,45,10.00
2008,07,18,05,46,10.00
2008,07,18,05,47,10.00
2008,07,18,05,48,10.00
2008,07,18,05,49,10.00
2008,07,18,05,50,10.00
2008,07,18,05,51,10.00
2008,07,18,05,52,10.00
2008,07,18,05,53,10.00
2008,07,18,05,54,10.00
2008,07,18,05,55,10.10
2008,07,18,05,56,10.10
2008,07,18,05,57,10.10
2008,07,18,05,58,10.10
2008,07,18,05,59,10.10
2008,07,18,06,00,10.10
2008,07,18,06,01,10.10
2008,07,18,06,02,10.10
2008,07,18,06,03,10.10
2008,07,18,06,04,10.10
2008,07,18,06,05,10.10
2008,07,18,06,06,10.10
2008,07,18,06,07,10.10
2008,07,18,06,08,10.10
2008,07,18,06,09,10.10
2008,07,18,06,10,10.10
2008,07,18,06,11,10.10
2008,07,18,06,12,10.20
2008,07,18,06,13,10.20
2008,07,18,06,14,10.20
2008,07,18,06,15,10.20
2008,07,18,06,16,10.20
2008,07,18,06,17,10.30
2008,07,18,06,18,10.30
2008,07,18,06,19,10.30
2008,07,18,06,20,10.30
2008,07,18,06,21,10.30
2008,07,18,06,22,10.30
2008,07,18,06,23,10.30
2008,07,18,06,24,10.30
2008,07,18,06,25,10.40
2008,07,18,06,26,10.40
2008,07,18,06,27,10.40
2008,07,18,06,28,10.50
2008,07,18,06,29,10.50
2008,07,18,06,30,10.60
2008,07,18,06,31,10.60
2008,07,18,06,32,10.60
2008,07,18,06,33,10.70
2008,07,18,06,34,10.70
2008,07,18,06,35,10.80
2008,07,18,06,36,10.90
2008,07,18,06,37,10.90
2008,07,18,06,38,11.00
2008,07,18,06,39,11.10
2008,07,18,06,40,11.10
2008,07,18,06,41,11.20
2008,07,18,06,42,11.20
2008,07,18,06,43,11.20
2008,07,18,06,44,11.20
2008,07,18,06,45,11.30
2008,07,18,06,46,11.40
2008,07,18,06,47,11.50
2008,07,18,06,48,11.50
2008,07,18,06,49,11.60
2008,07,18,06,50,11.70
2008,07,18,06,51,11.70
2008,07,18,06,52,11.70
2008,07,18,06,53,11.70
2008,07,18,06,54,11.70
2008,07,18,06,55,11.80
2008,07,18,06,56,11.80
2008,07,18,06,57,11.80
2008,07,18,06,58,11.80
2008,07,18,06,59,11.80
2008,07,18,07,00,11.80
2008,07,18,07,01,11.80
2008,07,18,07,02,11.90
2008,07,18,07,03,11.90
2008,07,18,07,04,11.90
2008,07,18,07,05,11.90
2008,07,18,07,06,11.90
2008,07,18,07,07,11.90
2008,07,18,07,08,12.00
2008,07,18,07,09,12.00
2008,07,18,07,10,12.10
2008,07,18,07,11,12.10
2008,07,18,07,12,12.10
2008,07,18,07,13,12.10
2008,07,18,07,14,12.20
2008,07,18,07,15,12.20
2008,07,18,07,16,12.30
2008,07,18,07,17,12.30
2008,07,18,07,18,12.40
2008,07,18,07,19,12.50
2008,07,18,07,20,12.60
2008,07,18,07,21,12.70
2008,07,18,07,22,12.80
2008,07,18,07,23,12.90
2008,07,18,07,24,13.10
2008,07,18,07,25,13.20
2008,07,18,07,26,13.30
2008,07,18,07,27,13.30
2008,07,18,07,28,13.40
2008,07,18,07,29,13.40
2008,07,18,07,30,13.50
2008,07,18,07,31,13.60
2008,07,18,07,32,13.60
2008,07,18,07,33,13.70
2008,07,18,07,34,13.80
2008,07,18,07,35,13.90
2008,07,18,07,36,14.00
2008,07,18,07,37,14.10
2008,07,18,07,38,14.30
2008,07,18,07,39,14.40
2008,07,18,07,40,14.50
2008,07,18,07,41,14.50
2008,07,18,07,42,14.50
2008,07,18,07,43,14.40
2008,07,18,07,44,14.40
2008,07,18,07,45,14.40
2008,07,18,07,46,14.40
2008,07,18,07,47,14.30
2008,07,18,07,48,14.40
2008,07,18,07,49,14.40
2008,07,18,07,50,14.40
2008,07,18,07,51,14.50
2008,07,18,07,52,14.50
2008,07,18,07,53,14.50
2008,07,18,07,54,14.60
2008,07,18,07,55,14.70
2008,07,18,07,56,14.70
2008,07,18,07,57,14.70
2008,07,18,07,58,14.70
2008,07,18,07,59,14.70
2008,07,18,08,00,14.70
2008,07,18,08,01,14.80
2008,07,18,08,02,14.80
2008,07,18,08,03,14.90
2008,07,18,08,04,15.00
2008,07,18,08,05,15.00
2008,07,18,08,06,15.00
2008,07,18,08,07,15.00
2008,07,18,08,08,15.00
2008,07,18,08,09,15.00
2008,07,18,08,10,15.00
2008,07,18,08,11,14.90
2008,07,18,08,12,14.80
2008,07,18,08,13,14.70
2008,07,18,08,14,14.70
2008,07,18,08,15,14.70
2008,07,18,08,16,14.70
2008,07,18,08,17,14.80
2008,07,18,08,18,14.80
2008,07,18,08,19,14.90
2008,07,18,08,20,14.90
2008,07,18,08,21,14.80
2008,07,18,08,22,14.70
2008,07,18,08,23,14.70
2008,07,18,08,24,14.70
2008,07,18,08,25,14.70
2008,07,18,08,26,14.70
2008,07,18,08,27,14.90
2008,07,18,08,28,15.00
2008,07,18,08,29,15.00
2008,07,18,08,30,15.00
2008,07,18,08,31,15.00
2008,07,18,08,32,15.00
2008,07,18,08,33,15.00
2008,07,18,08,34,15.00
2008,07,18,08,35,15.00
2008,07,18,08,36,15.00
2008,07,18,08,37,15.00
2008,07,18,08,38,15.00
2008,07,18,08,39,15.00
2008,07,18,08,40,15.00
2008,07,18,08,41,15.00
2008,07,18,08,42,15.00
2008,07,18,08,43,15.00
2008,07,18,08,44,15.00
2008,07,18,08,45,15.00
2008,07,18,08,46,15.00
2008,07,18,08,47,15.00
2008,07,18,08,48,15.00
2008,07,18,08,49,15.10
2008,07,18,08,50,15.20
2008,07,18,08,51,15.30
2008,07,18,08,52,15.50
2008,07,18,08,53,15.60
2008,07,18,08,54,15.70
2008,07,18,08,55,15.70
2008,07,18,08,56,15.70
2008,07,18,08,57,15.80
2008,07,18,08,58,15.80
2008,07,18,08,59,15.90
2008,07,18,09,00,16.00
2008,07,18,09,01,16.10
2008,07,18,09,02,16.10
2008,07,18,09,03,16.10
2008,07,18,09,04,16.20
2008,07,18,09,05,16.20
2008,07,18,09,06,16.30
2008,07,18,09,07,16.20
2008,07,18,09,08,16.30
2008,07,18,09,09,16.40
2008,07,18,09,10,16.40
2008,07,18,09,11,16.50
2008,07,18,09,12,16.60
2008,07,18,09,13,16.60
2008,07,18,09,14,16.40
2008,07,18,09,15,16.10
2008,07,18,09,16,15.90
2008,07,18,09,17,15.70
2008,07,18,09,18,15.60
2008,07,18,09,19,15.60
2008,07,18,09,20,15.60
2008,07,18,09,21,15.60
2008,07,18,09,22,15.60
2008,07,18,09,23,15.50
2008,07,18,09,24,15.50
2008,07,18,09,25,15.50
2008,07,18,09,26,15.40
2008,07,18,09,27,15.40
2008,07,18,09,28,15.30
2008,07,18,09,29,15.40
2008,07,18,09,30,15.40
2008,07,18,09,31,15.40
2008,07,18,09,32,15.40
2008,07,18,09,33,15.40
2008,07,18,09,34,15.50
2008,07,18,09,35,15.60
2008,07,18,09,36,15.80
2008,07,18,09,37,16.00
2008,07,18,09,38,16.20
2008,07,18,09,39,16.30
2008,07,18,09,40,16.40
2008,07,18,09,41,16.50
2008,07,18,09,42,16.60
2008,07,18,09,43,16.80
2008,07,18,09,44,16.90
2008,07,18,09,45,16.90
2008,07,18,09,46,16.90
2008,07,18,09,47,16.70
2008,07,18,09,48,16.50
2008,07,18,09,49,16.30
2008,07,18,09,50,16.30
2008,07,18,09,51,16.20
2008,07,18,09,52,16.20
2008,07,18,09,53,16.20
2008,07,18,09,54,16.30
2008,07,18,09,55,16.40
2008,07,18,09,56,16.40
2008,07,18,09,57,16.30
2008,07,18,09,58,16.30
2008,07,18,09,59,16.30
2008,07,18,10,00,16.40
2008,07,18,10,01,16.40
2008,07,18,10,02,16.40
2008,07,18,10,03,16.30
2008,07,18,10,04,16.30
2008,07,18,10,05,16.30
2008,07,18,10,06,16.30
2008,07,18,10,07,16.20
2008,07,18,10,08,16.10
2008,07,18,10,09,16.00
2008,07,18,10,10,15.80
2008,07,18,10,11,15.60
2008,07,18,10,12,15.50
2008,07,18,10,13,15.40
2008,07,18,10,14,15.20
2008,07,18,10,15,15.20
2008,07,18,10,16,15.30
2008,07,18,10,17,15.40
2008,07,18,10,18,15.40
2008,07,18,10,19,15.50
2008,07,18,10,20,15.60
2008,07,18,10,21,15.40
2008,07,18,10,22,15.30
2008,07,18,10,23,15.30
2008,07,18,10,24,15.00
2008,07,18,10,25,14.80
2008,07,18,10,26,14.50
2008,07,18,10,27,14.40
2008,07,18,10,28,14.30
2008,07,18,10,29,14.30
2008,07,18,10,30,14.30
2008,07,18,10,31,14.30
2008,07,18,10,32,14.30
2008,07,18,10,33,14.30
2008,07,18,10,34,14.30
2008,07,18,10,35,14.30
2008,07,18,10,36,14.40
2008,07,18,10,37,14.40
2008,07,18,10,38,14.30
2008,07,18,10,39,14.20
2008,07,18,10,40,14.10
2008,07,18,10,41,14.10
2008,07,18,10,42,14.10
2008,07,18,10,43,14.10
2008,07,18,10,44,14.00
2008,07,18,10,45,13.90
2008,07,18,10,46,13.90
2008,07,18,10,47,13.90
2008,07,18,10,48,14.00
2008,07,18,10,49,14.10
2008,07,18,10,50,14.20
2008,07,18,10,51,14.20
2008,07,18,10,52,14.20
2008,07,18,10,53,14.20
2008,07,18,10,54,14.30
2008,07,18,10,55,14.30
2008,07,18,10,56,14.30
2008,07,18,10,57,14.40
2008,07,18,10,58,14.40
2008,07,18,10,59,14.40
2008,07,18,11,00,14.40
2008,07,18,11,01,14.40
2008,07,18,11,02,14.40
2008,07,18,11,03,14.40
2008,07,18,11,04,14.40
2008,07,18,11,05,14.40
2008,07,18,11,06,14.40
2008,07,18,11,07,14.40
2008,07,18,17,54,16.40
2008,07,18,17,55,16.40
2008,07,18,17,56,16.50
2008,07,18,17,57,16.60
2008,07,18,17,58,16.60
2008,07,18,17,59,16.70
2008,07,18,18,00,16.70
2008,07,18,18,01,16.70
2008,07,18,18,02,16.70
2008,07,18,18,03,16.70
2008,07,18,18,04,16.80
2008,07,18,18,05,16.80
2008,07,18,18,06,16.80
2008,07,18,18,07,16.70
2008,07,18,18,08,16.70
2008,07,18,18,09,16.60
2008,07,18,18,10,16.60
2008,07,18,18,11,16.60
2008,07,18,18,12,16.60
2008,07,18,18,13,16.60
2008,07,18,18,14,16.60
2008,07,18,18,15,16.70
2008,07,18,18,16,16.80
2008,07,18,18,17,16.90
2008,07,18,18,18,16.90
2008,07,18,18,19,16.80
2008,07,18,18,20,16.80
2008,07,18,18,21,16.70
2008,07,18,18,22,16.70
2008,07,18,18,23,16.70
2008,07,18,18,24,16.80
2008,07,18,18,25,16.80
2008,07,18,18,26,16.80
2008,07,18,18,27,16.90
2008,07,18,18,28,16.90
2008,07,18,18,29,16.80
2008,07,18,18,30,16.80
2008,07,18,18,31,16.80
2008,07,18,18,32,16.70
2008,07,18,18,33,16.70
2008,07,18,18,34,16.80
2008,07,18,18,35,16.80
2008,07,18,18,36,16.80
2008,07,18,18,37,16.90
2008,07,18,18,38,16.90
2008,07,18,18,39,17.00
2008,07,18,18,40,17.00
2008,07,18,18,41,17.10
2008,07,18,18,42,17.30
2008,07,18,18,43,17.30
2008,07,18,18,44,17.30
2008,07,18,18,45,17.30
2008,07,18,18,46,17.30
2008,07,18,18,47,17.20
2008,07,18,18,48,17.10
2008,07,18,18,49,17.10
2008,07,18,18,50,17.00
2008,07,18,18,51,16.90
2008,07,18,18,52,16.90
2008,07,18,18,53,16.90
2008,07,18,18,54,16.90
2008,07,18,18,55,16.90
2008,07,18,18,56,16.90
2008,07,18,18,57,16.90
2008,07,18,18,58,16.90
2008,07,18,18,59,16.90
2008,07,18,19,00,16.80
2008,07,18,19,01,16.80
2008,07,18,19,02,16.70
2008,07,18,19,03,16.70
2008,07,18,19,04,16.70
2008,07,18,19,05,16.70
2008,07,18,19,06,16.70
2008,07,18,19,07,16.70
2008,07,18,19,08,16.70
2008,07,18,19,09,16.60
2008,07,18,19,10,16.60
2008,07,18,19,11,16.50
2008,07,18,19,12,16.50
2008,07,18,19,13,16.40
2008,07,18,19,14,16.40
2008,07,18,19,15,16.40
2008,07,18,19,16,16.40
2008,07,18,19,17,16.40
2008,07,18,19,18,16.40
2008,07,18,19,19,16.40
2008,07,18,19,20,16.50
2008,07,18,19,21,16.50
2008,07,18,19,22,16.60
2008,07,18,19,23,16.60
2008,07,18,19,24,16.60
2008,07,18,19,25,16.60
2008,07,18,19,26,16.60
2008,07,18,19,27,16.60
2008,07,18,19,28,16.60
2008,07,18,19,29,16.60
2008,07,18,19,30,16.60
2008,07,18,19,31,16.60
2008,07,18,19,32,16.70
2008,07,18,19,33,16.70
2008,07,18,19,34,16.70
2008,07,18,19,35,16.70
2008,07,18,19,36,16.80
2008,07,18,19,37,16.80
2008,07,18,19,38,16.80
2008,07,18,19,39,16.80
2008,07,18,19,40,16.80
2008,07,18,19,41,16.80
2008,07,18,19,42,16.80
2008,07,18,19,43,16.80
2008,07,18,19,44,16.80
2008,07,18,19,45,16.80
2008,07,18,19,46,16.80
2008,07,18,19,47,16.90
2008,07,18,19,48,16.90
2008,07,18,19,49,16.90
2008,07,18,19,50,16.90
2008,07,18,19,51,16.80
2008,07,18,19,52,16.80
2008,07,18,19,53,16.80
2008,07,18,19,54,16.80
2008,07,18,19,55,16.80
2008,07,18,19,56,16.80
2008,07,18,19,57,16.80
2008,07,18,19,58,16.90
2008,07,18,19,59,16.90
2008,07,18,20,00,16.90
2008,07,18,20,01,17.00
2008,07,18,20,02,17.00
2008,07,18,20,03,17.10
2008,07,18,20,04,17.10
2008,07,18,20,05,17.10
2008,07,18,20,06,17.10
2008,07,18,20,07,17.20
2008,07,18,20,08,17.20
2008,07,18,20,09,17.20
2008,07,18,20,10,17.30
2008,07,18,20,11,17.30
2008,07,18,20,12,17.30
2008,07,18,20,13,17.40
2008,07,18,20,14,17.50
2008,07,18,20,15,17.50
2008,07,18,20,16,17.60
2008,07,18,20,17,17.60
2008,07,18,20,18,17.60
2008,07,18,20,19,17.60
2008,07,18,20,20,17.60
2008,07,18,20,21,17.60
2008,07,18,20,22,17.60
2008,07,18,20,23,17.60
2008,07,18,20,24,17.70
2008,07,18,20,25,17.70
2008,07,18,20,26,17.60
2008,07,18,20,27,17.60
2008,07,18,20,28,17.60
2008,07,18,20,29,17.60
2008,07,18,20,30,17.60
2008,07,18,20,31,17.60
2008,07,18,20,32,17.50
2008,07,18,20,33,17.50
2008,07,18,20,34,17.50
2008,07,18,20,35,17.50
2008,07,18,20,36,17.50
2008,07,18,20,37,17.40
2008,07,18,20,38,17.40
2008,07,18,20,39,17.40
2008,07,18,20,40,17.40
2008,07,18,20,41,17.40
2008,07,18,20,42,17.30
2008,07,18,20,43,17.30
2008,07,18,20,44,17.30
2008,07,18,20,45,17.20
2008,07,18,20,46,17.20
2008,07,18,20,47,17.10
2008,07,18,20,48,17.10
2008,07,18,20,49,17.00
2008,07,18,20,50,17.00
2008,07,18,20,51,16.90
2008,07,18,20,52,16.90
2008,07,18,20,53,16.80
2008,07,18,20,54,16.80
2008,07,18,20,55,16.80
2008,07,18,20,56,16.80
2008,07,18,20,57,16.70
2008,07,18,20,58,16.70
2008,07,18,20,59,16.70
2008,07,18,21,00,16.70
2008,07,18,21,01,16.60
2008,07,18,21,02,16.60
2008,07,18,21,03,16.60
2008,07,18,21,04,16.60
2008,07,18,21,05,16.60
2008,07,18,21,06,16.50
2008,07,18,21,07,16.50
2008,07,18,21,08,16.40
2008,07,18,21,09,16.40
2008,07,18,21,10,16.40
2008,07,18,21,11,16.40
2008,07,18,21,12,16.40
2008,07,18,21,13,16.30
2008,07,18,21,14,16.30
2008,07,18,21,15,16.30
2008,07,18,21,16,16.30
2008,07,18,21,17,16.20
2008,07,18,21,18,16.20
2008,07,18,21,19,16.20
2008,07,18,21,20,16.20
2008,07,18,21,21,16.10
2008,07,18,21,22,16.10
2008,07,18,21,23,16.10
2008,07,18,21,24,16.10
2008,07,18,21,25,16.10
2008,07,18,21,26,16.00
2008,07,18,21,27,16.00
2008,07,18,21,28,16.00
2008,07,18,21,29,15.90
2008,07,18,21,30,15.90
2008,07,18,21,31,15.90
2008,07,18,21,32,15.90
2008,07,18,21,33,15.80
2008,07,18,21,34,15.80
2008,07,18,21,35,15.80
2008,07,18,21,36,15.80
2008,07,18,21,37,15.70
2008,07,18,21,38,15.70
2008,07,18,21,39,15.70
2008,07,18,21,40,15.60
2008,07,18,21,41,15.60
2008,07,18,21,42,15.60
2008,07,18,21,43,15.60
2008,07,18,21,44,15.50
2008,07,18,21,45,15.50
2008,07,18,21,46,15.40
2008,07,18,21,47,15.40
2008,07,18,21,48,15.40
2008,07,18,21,49,15.40
2008,07,18,21,50,15.30
2008,07,18,21,51,15.30
2008,07,18,21,52,15.20
2008,07,18,21,53,15.20
2008,07,18,21,54,15.10
2008,07,18,21,55,15.00
2008,07,18,21,56,15.00
2008,07,18,21,57,15.00
2008,07,18,21,58,15.00
2008,07,18,21,59,15.00
2008,07,18,22,00,15.00
2008,07,18,22,01,15.00
2008,07,18,22,02,15.00
2008,07,18,22,03,15.00
2008,07,18,22,04,14.90
2008,07,18,22,05,14.90
2008,07,18,22,06,14.80
2008,07,18,22,07,14.70
2008,07,18,22,08,14.70
2008,07,18,22,09,14.70
2008,07,18,22,10,14.60
2008,07,18,22,11,14.60
2008,07,18,22,12,14.50
2008,07,18,22,13,14.50
2008,07,18,22,14,14.40
2008,07,18,22,15,14.40
2008,07,18,22,16,14.30
2008,07,18,22,17,14.30
2008,07,18,22,18,14.20
2008,07,18,22,19,14.20
2008,07,18,22,20,14.20
2008,07,18,22,21,14.10
2008,07,18,22,22,14.10
2008,07,18,22,23,14.10
2008,07,18,22,24,14.00
2008,07,18,22,25,14.00
2008,07,18,22,26,13.90
2008,07,18,22,27,13.90
2008,07,18,22,28,13.80
2008,07,18,22,29,13.80
2008,07,18,22,30,13.80
2008,07,18,22,31,13.70
2008,07,18,22,32,13.70
2008,07,18,22,33,13.70
2008,07,18,22,34,13.70
2008,07,18,22,35,13.60
2008,07,18,22,36,13.60
2008,07,18,22,37,13.60
2008,07,18,22,38,13.50
2008,07,18,22,39,13.50
2008,07,18,22,40,13.40
2008,07,18,22,41,13.40
2008,07,18,22,42,13.40
2008,07,18,22,43,13.40
2008,07,18,22,44,13.30
2008,07,18,22,45,13.30
2008,07,18,22,46,13.30
2008,07,18,22,47,13.30
2008,07,18,22,48,13.20
2008,07,18,22,49,13.20
2008,07,18,22,50,13.20
2008,07,18,22,51,13.10
2008,07,18,22,52,13.10
2008,07,18,22,53,13.10
2008,07,18,22,54,13.10
2008,07,18,22,55,13.00
2008,07,18,22,56,13.00
2008,07,18,22,57,12.90
2008,07,18,22,58,12.90
2008,07,18,22,59,12.90
2008,07,18,23,00,12.90
2008,07,18,23,01,12.80
2008,07,18,23,02,12.80
2008,07,18,23,03,12.80
2008,07,18,23,04,12.80
2008,07,18,23,05,12.70
2008,07,18,23,06,12.70
2008,07,18,23,07,12.70
2008,07,18,23,08,12.70
2008,07,18,23,09,12.60
2008,07,18,23,10,12.60
2008,07,18,23,11,12.60
2008,07,18,23,12,12.60
2008,07,18,23,13,12.60
2008,07,18,23,14,12.50
2008,07,18,23,15,12.50
2008,07,18,23,16,12.40
2008,07,18,23,17,12.40
2008,07,18,23,18,12.40
2008,07,18,23,19,12.40
2008,07,18,23,20,12.40
2008,07,18,23,21,12.40
2008,07,18,23,22,12.30
2008,07,18,23,23,12.30
2008,07,18,23,24,12.30
2008,07,18,23,25,12.30
2008,07,18,23,26,12.30
2008,07,18,23,27,12.30
2008,07,18,23,28,12.30
2008,07,18,23,29,12.30
2008,07,18,23,30,12.20
2008,07,18,23,31,12.20
2008,07,18,23,32,12.20
2008,07,18,23,33,12.20
2008,07,18,23,34,12.20
2008,07,18,23,35,12.20
2008,07,18,23,36,12.20
2008,07,18,23,37,12.20
2008,07,18,23,38,12.20
2008,07,18,23,39,12.20
2008,07,18,23,40,12.10
2008,07,18,23,41,12.10
2008,07,18,23,42,12.10
2008,07,18,23,43,12.10
2008,07,18,23,44,12.10
2008,07,18,23,45,12.00
2008,07,18,23,46,12.00
2008,07,18,23,47,12.00
2008,07,18,23,48,12.00
2008,07,18,23,49,11.90
2008,07,18,23,50,11.90
2008,07,18,23,51,11.90
2008,07,18,23,52,11.90
2008,07,18,23,53,11.90
2008,07,18,23,54,11.80
2008,07,18,23,55,11.80
2008,07,18,23,56,11.80
2008,07,18,23,57,11.80
2008,07,18,23,58,11.80
2008,07,18,23,59,11.80
